Location: Tarrant
(32.8168°N, 97.0772°W)
Time: 05:48:57
(UTC+00:00)

Cosmos 1809 Rocket - Pass Details

Date: 06 October 2022
Orbit: 942 x 962 km, 82.5° (Epoch: 03 December)

Event Time Altitude Azimuth Distance (km) Brightness Sun altitude
Rises 11:54:48 0° 353° (N) 3,633 7.4 -7.4°
Reaches altitude 10° 11:57:18 10° 353° (N) 2,687 6.7 -6.8°
Maximum altitude 12:03:28 86° 265° (W) 964 4.5 -5.5°
Drops below altitude 10° 12:09:37 10° 177° (S) 2,684 6.9 -4.3°
Sets 12:12:06 0° 177° (S) 3,628 7.6 -3.7°
